Butler, GA

4:10 PM EST on December 09, 2019 (GMT -0500)
Butler

Weather History for K6A1 - October, 2019

Change the Weather History Date:

Thursday, October 17, 2019

  Actual Average (WUND) Record (WUND)
Temperature  
Mean Temperature 59 °F -  
Max Temperature 71 °F - - (-1)
Min Temperature 47 °F - - (-1)
Degree Days  
Heating Degree Days 6    
Growing Degree Days 9 (Base 50)    
Moisture  
Dew Point 39 °F    
Average Humidity 53    
Maximum Humidity 80    
Minimum Humidity 24    
Precipitation  
Precipitation 0.00 in - - ()
Sea Level Pressure  
Sea Level Pressure 29.97 in    
Wind  
Wind Speed 6 mph ()    
Max Wind Speed 10 mph    
Max Gust Speed 16 mph    
Visibility 10.0 miles    
Events      
Averages and records for this station are not official NWS values.
T = Trace of Precipitation, MM = Missing Value Source: Averaged Metar Reports

Daily Weather History Graph

Daily Weather History Graph

Search for Another Location

Airport or City:

Astronomy

Oct. 17, 2019 Rise Set
Actual Time 7:42 AM EDT 7:02 PM EDT
Civil Twilight 7:17 AM EDT 7:26 PM EDT
Nautical Twilight 6:48 AM EDT 7:55 PM EDT
Astronomical Twilight 6:20 AM EDT 8:23 PM EDT
Moon 9:43 PM EDT (10/17) 11:03 AM EDT (10/17)
Length of Visible Light 12h 09m
Length of Day
11h 19m
Waning Gibbous, 87% of the Moon is Illuminated
Oct 17
Waning Gibbous
Oct 21
Last Quarter
Oct 27
New
Nov 4
First Quarter
Nov 12
Full

Hourly Weather History & Observations

Time (EDT) Temp. Dew Point Humidity Pressure Visibility Wind Dir Wind Speed Gust Speed Precip Events Conditions
12:15 AM 54.1 °F 46.8 °F 76% 29.98 in 10.0 mi West 5.8 mph - N/A   Unknown
12:35 AM 53.6 °F 47.5 °F 80% 29.97 in 10.0 mi West 4.6 mph - N/A   Unknown
12:55 AM 54.5 °F 45.7 °F 72% 29.97 in 10.0 mi NW 5.8 mph - N/A   Unknown
1:15 AM 54.5 °F 44.6 °F 69% 29.97 in 10.0 mi NW 5.8 mph - N/A   Unknown
1:35 AM 54.5 °F 43.7 °F 67% 29.97 in 10.0 mi NW 5.8 mph - N/A   Unknown
1:55 AM 53.8 °F 43.7 °F 69% 29.97 in 10.0 mi WNW 4.6 mph - N/A   Unknown
2:15 AM 52.7 °F 43.9 °F 72% 29.97 in 10.0 mi NW 5.8 mph - N/A   Unknown
2:35 AM 53.1 °F 42.6 °F 68% 29.97 in 10.0 mi NNW 5.8 mph - N/A   Unknown
2:55 AM 52.3 °F 42.8 °F 70% 29.97 in 10.0 mi WNW 4.6 mph - N/A   Unknown
3:15 AM 52.2 °F 42.4 °F 69% 29.97 in 10.0 mi WNW 4.6 mph - N/A   Unknown
3:35 AM 51.8 °F 41.9 °F 69% 29.97 in 10.0 mi WNW 5.8 mph - N/A   Unknown
3:55 AM 51.1 °F 41.9 °F 71% 29.97 in 10.0 mi NW 5.8 mph - N/A   Unknown
4:15 AM 50.9 °F 41.9 °F 71% 29.96 in 10.0 mi NW 4.6 mph - N/A   Unknown
4:35 AM 50.2 °F 41.7 °F 73% 29.96 in 10.0 mi NW 5.8 mph - N/A   Unknown
4:55 AM 50.4 °F 41.2 °F 71% 29.96 in 10.0 mi NW 6.9 mph - N/A   Unknown
5:15 AM 50.4 °F 41.0 °F 70% 29.96 in 10.0 mi NNW 8.1 mph - N/A   Unknown
5:35 AM 49.6 °F 41.0 °F 72% 29.97 in 10.0 mi NW 6.9 mph - N/A   Unknown
5:55 AM 48.6 °F 41.0 °F 75% 29.98 in 10.0 mi WNW 5.8 mph - N/A   Unknown
6:15 AM 48.4 °F 41.0 °F 76% 29.98 in 10.0 mi NW 6.9 mph - N/A   Unknown
6:35 AM 48.6 °F 40.5 °F 74% 29.98 in 10.0 mi NNW 6.9 mph - N/A   Unknown
6:55 AM 48.0 °F 40.5 °F 75% 29.97 in 10.0 mi NW 5.8 mph - N/A   Unknown
7:15 AM 47.8 °F 40.5 °F 76% 29.98 in 10.0 mi NNW 6.9 mph - N/A   Unknown
7:35 AM 47.8 °F 40.3 °F 75% 29.98 in 10.0 mi NW 6.9 mph - N/A   Unknown
7:55 AM 47.7 °F 40.1 °F 75% 29.99 in 10.0 mi NW 6.9 mph - N/A   Unknown
8:15 AM 48.2 °F 40.3 °F 74% 30.00 in 10.0 mi NNW 9.2 mph - N/A   Unknown
8:35 AM 48.4 °F 40.3 °F 74% 30.00 in 10.0 mi NNW 8.1 mph - N/A   Unknown
8:55 AM 49.3 °F 40.6 °F 72% 30.00 in 10.0 mi NNW 10.4 mph 16.1 mph N/A   Unknown
9:15 AM 49.5 °F 40.8 °F 72% 30.02 in 10.0 mi NNW 9.2 mph - N/A   Unknown
9:35 AM 50.9 °F 41.2 °F 69% 30.01 in 10.0 mi NNW 9.2 mph - N/A   Unknown
9:55 AM 51.4 °F 41.2 °F 68% 30.01 in 10.0 mi NNW 9.2 mph - N/A   Unknown
10:15 AM 53.1 °F 41.7 °F 65% 30.01 in 10.0 mi NNW 10.4 mph - N/A   Unknown
10:35 AM 55.2 °F 41.7 °F 60% 30.01 in 10.0 mi North 8.1 mph - N/A   Unknown
10:55 AM 57.6 °F 40.1 °F 52% 30.01 in 10.0 mi North 9.2 mph - N/A   Unknown
11:15 AM 59.2 °F 38.8 °F 47% 30.01 in 10.0 mi North 8.1 mph - N/A   Unknown
11:35 AM 60.8 °F 38.3 °F 43% 30.02 in 10.0 mi NW 6.9 mph - N/A   Unknown
11:55 AM 62.4 °F 36.5 °F 38% 30.01 in 10.0 mi NNW 6.9 mph - N/A   Unknown
12:15 PM 63.5 °F 35.4 °F 35% 30.02 in 10.0 mi NNW 6.9 mph - N/A   Unknown
12:35 PM 64.2 °F 33.4 °F 32% 30.00 in 10.0 mi North 9.2 mph - N/A   Unknown
12:55 PM 65.1 °F 33.3 °F 31% 29.99 in 10.0 mi North 6.9 mph - N/A   Unknown
1:15 PM 66.6 °F 34.2 °F 30% 29.98 in 10.0 mi NNW 6.9 mph - N/A   Unknown
1:35 PM 67.1 °F 32.9 °F 28% 29.97 in 10.0 mi North 8.1 mph - N/A   Unknown
1:55 PM 67.3 °F 32.0 °F 27% 29.96 in 10.0 mi NNW 10.4 mph - N/A   Unknown
2:15 PM 68.9 °F 34.2 °F 28% 29.95 in 10.0 mi North 8.1 mph - N/A   Unknown
2:35 PM 69.3 °F 34.5 °F 28% 29.95 in 10.0 mi NW 5.8 mph - N/A   Unknown
2:55 PM 69.6 °F 34.5 °F 27% 29.94 in 10.0 mi North 10.4 mph - N/A   Unknown
3:15 PM 70.7 °F 34.3 °F 26% 29.93 in 10.0 mi North 9.2 mph - N/A   Unknown
3:35 PM 70.7 °F 34.7 °F 27% 29.92 in 10.0 mi NNW 9.2 mph - N/A   Unknown
3:55 PM 71.6 °F 34.3 °F 25% 29.92 in 10.0 mi NNW 8.1 mph - N/A   Unknown
4:15 PM 71.1 °F 32.4 °F 24% 29.92 in 10.0 mi NNW 10.4 mph - N/A   Unknown
4:35 PM 71.6 °F 32.9 °F 24% 29.92 in 10.0 mi NNW 10.4 mph - N/A   Unknown
4:55 PM 71.4 °F 33.4 °F 25% 29.92 in 10.0 mi NW 5.8 mph - N/A   Unknown
5:15 PM 70.5 °F 33.6 °F 26% 29.92 in 10.0 mi NNW 8.1 mph - N/A   Unknown
5:35 PM 70.7 °F 34.7 °F 27% 29.93 in 10.0 mi NNW 5.8 mph - N/A   Unknown
5:55 PM 69.6 °F 36.1 °F 29% 29.93 in 10.0 mi NNW 6.9 mph - N/A   Unknown
6:15 PM 68.4 °F 36.3 °F 31% 29.93 in 10.0 mi NW 5.8 mph - N/A   Unknown
6:35 PM 66.9 °F 37.0 °F 33% 29.93 in 10.0 mi NW 4.6 mph - N/A   Unknown
6:55 PM 65.5 °F 37.2 °F 35% 29.93 in 10.0 mi WNW 3.5 mph - N/A   Unknown
7:15 PM 64.2 °F 38.1 °F 38% 29.93 in 10.0 mi WNW 3.5 mph - N/A   Unknown
7:35 PM 62.1 °F 41.0 °F 46% 29.93 in 10.0 mi WNW 3.5 mph - N/A   Unknown
7:55 PM 62.1 °F 41.0 °F 46% 29.94 in 10.0 mi WNW 5.8 mph - N/A   Unknown
8:15 PM 62.1 °F 40.8 °F 46% 29.94 in 10.0 mi NW 4.6 mph - N/A   Unknown
8:35 PM 61.7 °F 40.3 °F 45% 29.95 in 10.0 mi NW 4.6 mph - N/A   Unknown
8:55 PM 61.2 °F 40.3 °F 46% 29.95 in 10.0 mi NW 5.8 mph - N/A   Unknown
9:15 PM 60.6 °F 40.6 °F 48% 29.96 in 10.0 mi WNW 4.6 mph - N/A   Unknown
9:35 PM 59.7 °F 41.0 °F 50% 29.95 in 10.0 mi NW 4.6 mph - N/A   Unknown
9:55 PM 59.0 °F 41.0 °F 51% 29.95 in 10.0 mi NW 5.8 mph - N/A   Unknown
10:15 PM 58.5 °F 41.0 °F 52% 29.96 in 10.0 mi NNW 4.6 mph - N/A   Unknown
10:35 PM 58.3 °F 40.3 °F 51% 29.97 in 10.0 mi NNW 4.6 mph - N/A   Unknown
10:55 PM 58.1 °F 40.1 °F 51% 29.97 in 10.0 mi NNW 4.6 mph - N/A   Unknown
11:15 PM 57.2 °F 40.3 °F 53% 29.97 in 10.0 mi NW 5.8 mph - N/A   Unknown
11:35 PM 56.5 °F 41.0 °F 56% 29.97 in 10.0 mi NNW 5.8 mph - N/A   Unknown
11:55 PM 56.7 °F 40.5 °F 55% 29.98 in 10.0 mi NW 5.8 mph - N/A   Unknown